Tracking 33446 objects as of 10-Mar-2026
HD Live streaming from Space Station
objects crossing your sky now

STARLINK-35508

Track STARLINK-35508 now!
10-day predictions
STARLINK-35508 is classified as:


NORAD ID: 65912
Int'l Code: 2025-225C
Perigee: 481.6 km
Apogee: 483.1 km
Inclination: 53.2 °
Period: 94.1 minutes
Semi major axis: 6853 km
RCS: Unknown
Launch date: October 8, 2025
Source: United States (US)
Launch site: AIR FORCE WESTERN TEST RANGE (AFWTR)
Your satellite tracking list
Your tracking list is empty




NASA's NSSDC Master Catalog

Two Line Element Set (TLE):
1 65912U 25225C   26068.54616619  .00024218  00000-0  82749-3 0  9999
2 65912  53.1584 166.5253 0001091 112.1029 248.0088 15.30186433 24387
Source of the keplerian elements: AFSPC